Wind_Speed
29 30 31 31 32 32 31 32 33 35 35 35 34 34 34 35 36 36 37 38 40 39 40 40 41 41 41 39 38 38 38 38 37 37 37 36 36 35 35 35 36 36 36
29 29 30 31 31 31 31 32 32 34 34 33 33 33 33 33 34 35 37 37 39 39 40 41 41 41 42 41 39 38 39 38 38 38 38 37 37 37 37 37 37 38 38
29 29 30 30 30 30 30 31 31 33 33 33 33 33 33 34 34 35 36 37 39 38 39 40 41 41 41 41 40 39 40 39 39 40 40 39 38 38 38 39 39 40 40
28 28 28 28 28 29 29 29 30 31 31 33 34 33 32 33 34 36 37 37 37 37 38 39 40 40 40 40 40 41 41 40 41 41 41 41 41 40 39 40 41 42 43
27 27 29 29 28 29 29 29 30 31 31 31 32 32 32 32 33 35 36 37 36 37 38 39 40 40 40 39 40 40 41 41 42 42 41 41 41 42 42 42 42 43 44
26 27 28 29 28 28 29 29 29 30 31 31 31 31 32 33 33 33 35 35 35 37 37 39 39 40 41 40 40 40 40 41 43 43 43 44 44 43 44 44 44 45 45
26 26 27 27 27 28 28 28 29 29 30 30 30 31 30 31 33 33 33 35 36 37 38 40 40 41 41 41 41 41 41 42 43 44 45 46 46 45 46 46 46 47 47
26 26 27 27 27 27 27 28 29 29 29 30 30 31 30 30 32 33 34 34 36 37 38 40 41 41 42 42 40 41 42 44 45 45 45 46 47 47 47 48 48 49 49
26 26 27 27 27 27 27 28 28 28 29 30 31 31 32 32 32 33 34 35 35 37 39 40 40 41 42 42 41 41 42 43 45 46 46 47 47 48 49 49 50 51 52
27 27 28 28 28 28 28 28 28 28 29 30 31 31 31 31 32 33 35 35 35 37 39 40 40 41 42 43 42 41 41 43 45 47 47 48 48 49 49 50 51 52 52
28 29 29 29 29 29 28 28 28 27 28 29 29 30 31 32 33 33 34 35 35 37 38 39 40 41 42 42 43 44 44 44 45 47 48 49 49 50 51 52 52 52 53
29 29 29 29 29 29 28 28 28 27 28 28 30 31 32 33 33 33 34 34 35 37 38 39 40 41 41 42 43 44 44 44 45 47 47 48 49 50 51 52 53 53 53
30 29 29 29 29 28 28 27 27 27 27 28 30 31 33 33 33 34 34 35 36 37 38 38 39 40 41 43 44 45 46 46 46 47 47 48 49 50 51 52 52 52 53
30 30 29 29 29 29 28 28 28 28 29 29 30 31 32 33 33 33 34 35 36 37 37 38 40 41 42 44 45 46 46 45 45 46 47 48 49 49 50 51 51 52 52
31 30 30 30 30 31 30 30 30 30 30 30 30 30 31 32 33 34 35 37 37 38 39 40 41 42 42 43 43 45 46 46 46 47 47 48 49 49 50 50 50 51 51
32 31 30 30 31 31 31 32 32 31 31 31 31 31 32 33 34 35 36 37 37 38 39 40 41 41 42 43 44 44 45 46 46 47 47 48 49 49 50 49 49 49 47
31 31 30 31 31 31 31 31 32 32 32 32 33 34 34 34 35 36 36 37 37 38 39 40 41 41 42 43 44 44 45 46 46 47 47 48 49 49 49 48 47 47 46
31 31 31 31 31 31 31 31 32 33 33 34 34 34 34 34 35 37 38 38 39 39 40 40 40 40 41 43 44 44 45 45 46 46 47 47 47 48 47 46 46 46 45
31 32 32 32 31 31 31 32 32 34 34 34 35 35 35 36 37 38 38 39 39 39 39 40 40 40 41 42 43 43 45 45 45 45 45 45 45 44 45 44 44 44 44
32 32 32 32 32 32 32 33 33 34 34 34 35 36 37 38 38 39 39 39 39 39 39 39 40 41 42 42 42 43 43 44 44 43 43 43 43 42 42 42 42 42 41
34 33 33 33 33 34 34 34 34 35 35 35 36 37 38 38 38 39 39 39 39 39 39 39 40 41 41 42 42 42 43 43 42 42 42 41 41 41 41 41 41 40 40
34 34 34 34 35 35 35 35 35 35 36 36 36 37 37 38 38 38 38 38 38 39 39 39 40 40 41 42 42 42 41 41 41 40 40 40 40 40 40 39 39 39 39
36 35 35 35 35 35 35 35 35 36 36 36 37 37 37 37 38 38 38 38 39 39 39 40 40 41 41 41 41 40 40 39 39 39 39 39 39 38 38 38 38 39 39
36 36 36 36 36 36 36 36 36 36 37 37 37 37 37 38 38 39 39 38 39 39 40 40 41 41 41 40 39 39 38 38 38 38 38 37 37 37 37 37 38 38 38
35 36 36 36 36 36 36 36 36 37 37 37 37 38 38 38 39 39 39 39 39 40 40 41 41 40 39 38 38 37 37 37 36 36 36 36 36 36 36 36 36 36 36
36 36 36 36 36 37 37 37 37 37 37 37 38 38 38 38 39 39 39 39 39 40 40 40 39 37 37 36 36 36 35 35 35 35 35 35 35 35 34 34 34 35 35
Wind_Direction
267 266 264 263 261 259 258 259 257 257 257 258 258 258 256 256 255 253 248 247 246 246 247 246 247 246 247 250 253 255 255 255 257 259 261 264 266 268 270 272 273 275 276
268 266 265 264 263 262 262 261 259 259 259 259 257 258 257 257 254 252 250 248 247 246 246 245 245 245 248 250 252 254 254 256 258 260 262 264 266 268 269 271 273 275 275
268 267 265 264 264 263 263 261 259 261 263 260 259 261 259 257 255 252 250 249 247 246 246 246 245 247 249 250 252 254 255 256 258 261 263 265 266 266 268 270 272 274 275
267 266 264 265 265 264 262 262 262 263 264 263 261 262 260 257 255 252 250 249 246 247 248 247 247 246 249 252 253 256 257 258 260 262 265 266 268 269 269 270 272 274 275
269 267 265 265 265 264 263 263 264 265 267 267 262 260 259 257 256 252 250 247 246 247 248 247 246 247 249 252 255 257 258 260 260 263 265 266 269 272 271 272 274 275 276
271 269 267 266 266 266 265 264 266 267 268 266 262 260 258 256 253 250 249 246 246 248 249 248 248 249 251 254 257 258 260 261 261 264 267 268 270 272 273 274 276 276 278
271 270 269 268 268 268 268 266 267 268 267 266 261 258 257 256 255 251 249 247 248 248 249 250 251 252 254 256 257 259 261 262 263 266 267 269 270 273 274 275 276 277 278
272 272 270 269 270 270 270 269 268 267 265 265 262 259 258 259 257 252 250 249 249 249 250 252 254 255 257 258 259 261 263 264 265 267 268 270 271 273 275 276 277 277 277
271 272 272 271 271 270 270 272 270 268 266 263 263 262 260 260 258 254 253 253 252 252 253 255 256 256 258 258 260 263 264 266 267 268 269 271 273 274 276 277 277 278 278
270 272 272 271 271 271 271 271 271 269 266 263 261 261 260 259 258 256 255 256 255 255 257 257 257 258 259 261 262 263 266 268 269 270 271 272 274 276 277 278 278 279 280
269 270 272 272 273 272 271 271 271 270 267 264 262 263 260 260 259 258 259 260 260 258 258 258 259 260 261 262 265 266 268 271 272 272 273 274 276 277 277 278 278 279 279
268 270 271 271 272 273 272 271 270 269 268 266 265 264 262 262 261 261 260 261 261 260 261 261 262 263 265 266 267 269 270 272 274 274 275 276 277 278 278 278 278 279 280
268 269 271 273 273 272 271 270 269 269 269 268 267 265 264 263 263 263 262 261 261 262 264 265 266 266 267 269 270 271 271 273 275 276 276 277 278 278 278 279 279 280 280
270 269 270 271 271 270 270 270 269 269 269 268 268 267 266 264 264 265 264 264 264 265 266 267 268 269 270 271 271 272 272 274 277 278 278 278 278 278 279 279 279 280 280
269 269 269 269 269 269 270 270 270 270 270 270 269 268 268 267 266 266 266 266 266 266 268 269 270 271 272 273 274 275 275 277 278 280 280 278 278 279 279 279 279 280 281
269 269 269 269 270 269 269 269 270 270 270 270 269 270 270 269 269 268 267 267 267 267 269 271 271 271 273 275 276 277 278 279 281 282 281 280 280 279 279 280 280 281 281
268 268 268 268 269 268 268 269 269 269 269 269 269 269 269 269 269 269 269 269 270 270 271 273 272 272 273 275 277 278 280 281 282 282 282 281 281 280 280 280 280 280 280
267 268 268 268 268 268 268 269 270 270 270 270 269 270 271 272 272 272 272 273 273 273 274 274 275 274 275 276 277 278 280 282 283 282 281 282 281 280 279 280 281 280 281
266 267 268 269 269 269 269 269 270 270 270 270 271 271 272 274 275 274 274 275 276 276 275 275 275 276 277 278 278 280 281 282 283 283 282 282 282 280 279 280 281 281 281
265 265 267 269 269 269 269 269 270 271 271 271 271 272 273 275 276 275 276 276 276 276 276 276 276 277 279 279 279 281 281 282 282 282 282 283 282 282 281 280 281 281 280
264 265 266 268 268 268 268 268 269 270 271 271 273 274 275 276 276 277 277 277 276 277 277 278 279 280 280 280 281 281 282 282 283 282 282 283 282 282 281 282 281 281 282
264 265 266 267 268 268 267 267 267 269 270 271 273 274 275 276 276 277 278 278 278 278 279 279 280 282 283 283 283 282 282 283 283 282 281 281 282 282 282 282 282 283 283
264 265 266 269 269 267 267 267 267 268 270 272 274 275 275 276 277 278 278 278 279 280 280 280 281 283 283 283 283 282 282 282 281 281 281 282 282 283 282 282 283 283 283
264 266 267 268 269 268 269 269 269 270 271 273 274 275 276 277 278 279 279 280 280 281 282 282 283 284 283 282 281 282 282 282 281 281 282 283 283 283 283 283 283 282 282
264 267 268 269 269 268 269 270 271 272 273 274 275 275 276 277 278 279 280 280 281 282 282 283 284 284 282 281 281 282 282 282 281 281 281 282 283 283 283 283 283 283 283
265 266 267 269 269 269 270 271 272 272 274 275 276 278 279 279 280 280 280 281 282 283 284 284 284 284 283 282 281 282 282 282 281 281 282 282 282 282 282 282 283 283 283
Height
5710 5710 5710 5711 5712 5713 5714 5715 5716 5717 5717 5718 5719 5720 5721 5722 5724 5726 5728 5731 5734 5738 5741 5745 5748 5752 5756 5758 5762 5764 5766 5768 5769 5771 5773 5774 5774 5775 5776 5776 5776 5776 5776
5703 5703 5703 5703 5704 5705 5706 5707 5708 5708 5708 5709 5710 5711 5712 5714 5715 5717 5719 5722 5725 5729 5732 5735 5739 5743 5746 5749 5752 5755 5757 5758 5760 5762 5763 5764 5766 5766 5767 5767 5767 5767 5766
5696 5696 5697 5697 5697 5698 5699 5699 5700 5700 5701 5702 5702 5703 5704 5705 5707 5709 5711 5714 5717 5720 5723 5726 5730 5734 5737 5740 5743 5745 5747 5749 5751 5752 5753 5755 5756 5756 5758 5757 5757 5757 5756
5689 5689 5690 5690 5691 5691 5692 5692 5692 5693 5693 5693 5694 5695 5696 5697 5699 5701 5703 5705 5708 5711 5714 5718 5721 5725 5728 5731 5733 5735 5737 5739 5741 5742 5743 5745 5746 5746 5747 5748 5747 5747 5746
5683 5683 5683 5684 5684 5684 5684 5684 5685 5685 5685 5686 5686 5687 5688 5689 5691 5692 5695 5697 5700 5703 5706 5709 5712 5716 5719 5721 5723 5725 5727 5728 5731 5732 5733 5734 5734 5735 5735 5736 5737 5736 5735
5677 5677 5677 5677 5677 5677 5677 5677 5678 5678 5678 5678 5679 5679 5681 5682 5683 5685 5687 5689 5692 5695 5697 5700 5703 5706 5709 5712 5714 5715 5716 5718 5720 5722 5722 5722 5723 5723 5723 5723 5724 5724 5724
5671 5671 5670 5670 5670 5671 5670 5670 5671 5671 5671 5671 5671 5672 5673 5674 5675 5677 5679 5681 5684 5686 5689 5691 5694 5697 5699 5702 5704 5705 5707 5708 5709 5711 5711 5711 5712 5711 5711 5711 5711 5711 5711
5664 5664 5664 5664 5664 5664 5663 5663 5663 5664 5664 5664 5664 5665 5666 5667 5668 5669 5671 5673 5676 5678 5681 5683 5686 5688 5690 5692 5694 5695 5696 5697 5698 5699 5700 5700 5700 5699 5699 5698 5697 5697 5697
5658 5658 5658 5657 5657 5657 5657 5656 5656 5656 5656 5657 5657 5658 5659 5660 5661 5662 5664 5666 5668 5670 5672 5674 5676 5678 5681 5682 5683 5685 5686 5686 5687 5687 5688 5688 5687 5687 5686 5684 5683 5682 5682
5652 5652 5651 5651 5650 5650 5650 5649 5649 5649 5649 5649 5650 5650 5651 5652 5653 5655 5656 5658 5660 5661 5663 5665 5667 5669 5670 5672 5673 5674 5675 5675 5676 5676 5676 5676 5675 5674 5673 5671 5669 5667 5665
5644 5644 5644 5644 5643 5643 5643 5642 5642 5642 5642 5642 5642 5643 5643 5644 5645 5646 5648 5649 5651 5653 5654 5656 5658 5659 5660 5661 5662 5663 5663 5663 5664 5664 5663 5663 5661 5660 5658 5656 5655 5653 5651
5636 5636 5636 5636 5636 5635 5635 5635 5634 5634 5634 5634 5634 5635 5636 5636 5637 5638 5640 5641 5642 5644 5645 5646 5647 5649 5649 5650 5650 5651 5651 5651 5651 5651 5650 5649 5647 5646 5644 5642 5640 5639 5637
5628 5628 5628 5628 5628 5627 5627 5627 5627 5627 5627 5626 5627 5627 5627 5628 5629 5630 5631 5632 5633 5634 5635 5636 5637 5638 5638 5638 5639 5639 5639 5638 5638 5637 5636 5635 5633 5632 5630 5628 5626 5624 5622
5619 5619 5620 5620 5620 5620 5620 5619 5619 5619 5619 5618 5618 5618 5619 5620 5620 5621 5622 5623 5623 5624 5625 5626 5626 5627 5627 5627 5627 5626 5626 5626 5625 5624 5623 5621 5619 5617 5615 5613 5611 5609 5607
5611 5611 5611 5612 5612 5612 5611 5611 5611 5611 5611 5610 5610 5610 5610 5611 5611 5612 5613 5613 5614 5614 5615 5615 5615 5615 5615 5615 5615 5614 5614 5613 5612 5611 5609 5607 5605 5603 5601 5599 5597 5595 5593
5602 5602 5602 5602 5603 5603 5603 5603 5603 5603 5603 5602 5602 5602 5602 5602 5603 5603 5603 5604 5604 5604 5604 5604 5604 5604 5604 5603 5603 5602 5601 5600 5599 5597 5595 5593 5591 5589 5587 5585 5583 5581 5579
5593 5593 5593 5593 5594 5594 5594 5594 5594 5594 5594 5594 5594 5594 5593 5593 5593 5593 5594 5594 5594 5594 5594 5593 5593 5593 5592 5591 5590 5589 5587 5586 5585 5583 5581 5579 5577 5575 5573 5571 5569 5568 5566
5585 5585 5585 5585 5585 5585 5585 5585 5585 5585 5584 5584 5584 5584 5584 5584 5584 5583 5583 5583 5583 5583 5582 5582 5581 5580 5580 5579 5577 5576 5574 5573 5572 5569 5567 5565 5564 5561 5560 5558 5557 5555 5554
5576 5576 5576 5576 5576 5576 5576 5576 5576 5575 5575 5575 5575 5575 5574 5574 5574 5573 5573 5572 5572 5571 5571 5570 5569 5569 5568 5566 5564 5563 5562 5560 5559 5557 5554 5552 5550 5549 5547 5546 5545 5543 5542
5566 5567 5567 5567 5567 5567 5567 5567 5567 5566 5566 5566 5565 5565 5564 5564 5563 5563 5562 5561 5561 5560 5559 5558 5558 5557 5555 5554 5552 5550 5549 5548 5546 5544 5542 5540 5538 5536 5534 5533 5532 5531 5530
5557 5557 5558 5558 5558 5558 5558 5558 5558 5557 5557 5556 5555 5555 5554 5553 5553 5552 5551 5550 5550 5549 5548 5547 5547 5545 5543 5542 5540 5537 5536 5534 5533 5531 5530 5528 5526 5524 5523 5521 5520 5519 5517
5547 5548 5549 5549 5549 5548 5548 5548 5548 5548 5547 5546 5545 5545 5544 5543 5542 5541 5540 5539 5538 5538 5537 5536 5535 5533 5531 5529 5527 5525 5523 5521 5520 5519 5518 5516 5515 5513 5511 5510 5508 5507 5506
5537 5538 5538 5538 5538 5538 5538 5538 5538 5537 5537 5536 5535 5534 5533 5532 5531 5530 5529 5528 5527 5526 5525 5524 5523 5522 5520 5518 5515 5514 5512 5510 5509 5508 5507 5505 5503 5502 5500 5499 5497 5496 5495
5527 5527 5528 5528 5528 5528 5528 5527 5527 5527 5526 5526 5525 5524 5523 5522 5520 5519 5518 5517 5516 5515 5514 5512 5511 5510 5508 5506 5504 5502 5501 5499 5498 5497 5495 5494 5492 5491 5490 5488 5486 5485 5483
5516 5517 5517 5518 5518 5517 5517 5517 5517 5516 5516 5515 5514 5513 5512 5511 5510 5509 5507 5506 5504 5503 5502 5500 5499 5497 5496 5495 5493 5491 5490 5488 5487 5486 5485 5484 5483 5481 5480 5478 5476 5474 5473
5506 5506 5507 5507 5507 5507 5507 5507 5506 5505 5505 5504 5504 5503 5502 5500 5499 5498 5497 5495 5493 5492 5490 5488 5486 5485 5484 5483 5482 5480 5479 5478 5477 5476 5475 5474 5473 5471 5470 5468 5466 5465 5463